Location: Albuquerque Trailhead
(34.7934°N, 106.3736°W)
Time: 00:18:00
(UTC+00:00)

SL-16 R/B - Pass Details

Date: 20 June 2021
Orbit: 985 x 1007 km, 99.5° (Epoch: 27 July)

Event Time Altitude Azimuth Distance (km) Brightness Sun altitude
Exits shadow 09:45:18 35° 239° (WSW) 1,546 3.0 -20.7°
Maximum altitude 09:46:22 38° 261° (W) 1,481 3.1 -20.6°
Drops below altitude 10° 09:52:04 10° 328° (NNW) 2,756 5.1 -19.9°
Sets 09:54:45 0° 337° (NNW) 3,705 5.9 -19.5°
